When you browse on this site, cookies collect data to enhance your experience and personalize the content and advertising you see.
Visit our Privacy Policy to learn more. By continuing to use the site, you agree to this use of cookies and data.
  • In Romania
  • List of Countries
  • For 7 days
  • Water Temperature
  • Satellite Maps
  • Weather Map
  • Weather Widgets
  • user-avatar
    Login

    Hourly Weather Sazonovo

    Today, 24 March, Sunday

    Time Temperature Precipitation Wind Pressure Humidity
    00:00 +1°C° 0.8 mm 3 mps 744 mmHg 77%
    01:00 +1°C° 0.8 mm 3 mps 744 mmHg 78%
    02:00 +1°C° 0 mm 3 mps 743 mmHg 80%
    03:00 +1°C° 0.3 mm 3 mps 742 mmHg 81%
    04:00 +1°C° 0.3 mm 3 mps 742 mmHg 82%
    05:00 +1°C° 0.3 mm 3 mps 741 mmHg 84%
    06:00 +1°C° 0 mm 3 mps 741 mmHg 85%
    07:00 +1°C° 0 mm 4 mps 741 mmHg 86%
    08:00 +1°C° 0 mm 4 mps 740 mmHg 86%
    09:00 +3°C° 0 mm 4 mps 740 mmHg 80%
    10:00 +3°C° 0 mm 5 mps 740 mmHg 74%
    11:00 +5°C° 0 mm 5 mps 740 mmHg 68%
    12:00 +5°C° 0.1 mm 5 mps 740 mmHg 63%
    13:00 +4°C° 0.1 mm 6 mps 740 mmHg 58%
    14:00 +6°C° 0 mm 5 mps 740 mmHg 51%
    15:00 +5°C° 0 mm 4 mps 740 mmHg 54%
    16:00 +5°C° 0 mm 4 mps 740 mmHg 56%
    17:00 +4°C° 0 mm 3 mps 740 mmHg 59%
    18:00 +3°C° 0 mm 3 mps 740 mmHg 62%
    19:00 +2°C° 0 mm 3 mps 740 mmHg 65%
    20:00 +1°C° 0 mm 3 mps 740 mmHg 68%
    21:00 0°C° 0 mm 3 mps 740 mmHg 70%
    22:00 +1°C° 0 mm 2 mps 741 mmHg 72%
    23:00 -1°C° 0 mm 2 mps 741 mmHg 74%

    Tomorrow, 25 March, Monday

    Time Temperature Precipitation Wind Pressure Humidity
    00:00 -2°C° 0 mm 2 mps 740 mmHg 76%
    01:00 -2°C° 0 mm 2 mps 740 mmHg 77%
    02:00 -3°C° 0 mm 2 mps 740 mmHg 79%
    03:00 -3°C° 0 mm 2 mps 740 mmHg 80%
    04:00 -3°C° 0 mm 2 mps 740 mmHg 80%
    05:00 -3°C° 0 mm 2 mps 740 mmHg 81%
    06:00 -2°C° 0 mm 2 mps 739 mmHg 76%
    07:00 -1°C° 0 mm 2 mps 739 mmHg 71%
    08:00 0°C° 0 mm 3 mps 739 mmHg 66%
    09:00 +2°C° 0 mm 3 mps 739 mmHg 60%
    10:00 +3°C° 0 mm 3 mps 739 mmHg 54%
    11:00 +5°C° 0 mm 4 mps 738 mmHg 48%
    12:00 +5°C° 0 mm 3 mps 738 mmHg 47%
    13:00 +7°C° 0 mm 3 mps 738 mmHg 46%
    14:00 +7°C° 0 mm 3 mps 738 mmHg 45%
    15:00 +5°C° 0 mm 3 mps 737 mmHg 50%
    16:00 +5°C° 0 mm 2 mps 737 mmHg 56%
    17:00 +5°C° 0 mm 2 mps 737 mmHg 62%
    18:00 +3°C° 0 mm 2 mps 737 mmHg 66%
    19:00 +2°C° 0 mm 2 mps 737 mmHg 71%
    20:00 +1°C° 0 mm 2 mps 737 mmHg 76%
    21:00 -1°C° 0 mm 2 mps 736 mmHg 76%
    22:00 -1°C° 0 mm 2 mps 736 mmHg 77%
    23:00 -1°C° 0 mm 2 mps 736 mmHg 78%

    Day after tomorrow, 26 March, Tuesday

    Time Temperature Precipitation Wind Pressure Humidity
    00:00 -1°C° 0 mm 2 mps 736 mmHg 80%
    01:00 -1°C° 0 mm 2 mps 736 mmHg 82%
    02:00 -2°C° 0 mm 2 mps 735 mmHg 84%
    03:00 -1°C° 0.1 mm 2 mps 735 mmHg 86%
    04:00 -1°C° 0.1 mm 2 mps 735 mmHg 88%
    05:00 -1°C° 0.1 mm 2 mps 735 mmHg 91%
    06:00 -1°C° 0.3 mm 3 mps 735 mmHg 89%
    07:00 -2°C° 0.3 mm 4 mps 735 mmHg 87%
    08:00 -2°C° 0.3 mm 4 mps 735 mmHg 86%
    09:00 -2°C° 0.1 mm 4 mps 736 mmHg 80%
    10:00 -1°C° 0.1 mm 4 mps 736 mmHg 73%
    11:00 -1°C° 0.1 mm 4 mps 736 mmHg 67%
    12:00 -1°C° 0.1 mm 4 mps 736 mmHg 62%
    13:00 0°C° 0.1 mm 4 mps 736 mmHg 57%
    14:00 0°C° 0.1 mm 4 mps 736 mmHg 52%
    15:00 +1°C° 0 mm 3 mps 736 mmHg 54%
    16:00 +2°C° 0 mm 2 mps 737 mmHg 56%
    17:00 +1°C° 0 mm 2 mps 737 mmHg 58%
    18:00 +1°C° 0 mm 1 mps 737 mmHg 63%
    19:00 0°C° 0 mm 1 mps 737 mmHg 69%
    20:00 -1°C° 0 mm 1 mps 738 mmHg 74%
    21:00 -2°C° 0 mm 1 mps 738 mmHg 76%
    22:00 -2°C° 0 mm 1 mps 738 mmHg 78%
    23:00 -2°C° 0 mm 1 mps 739 mmHg 81%

    27 March, Wednesday

    Time Temperature Precipitation Wind Pressure Humidity
    00:00 -4°C° 0 mm 2 mps 739 mmHg 81%
    01:00 -5°C° 0 mm 2 mps 739 mmHg 82%
    02:00 -5°C° 0 mm 2 mps 740 mmHg 82%
    03:00 -6°C° 0 mm 3 mps 740 mmHg 83%
    04:00 -6°C° 0 mm 3 mps 741 mmHg 84%
    05:00 -6°C° 0 mm 3 mps 741 mmHg 84%
    06:00 -5°C° 0.1 mm 4 mps 742 mmHg 79%
    07:00 -4°C° 0.1 mm 4 mps 742 mmHg 75%
    08:00 -4°C° 0.1 mm 5 mps 743 mmHg 70%
    09:00 -2°C° 0 mm 5 mps 744 mmHg 67%
    10:00 -2°C° 0 mm 5 mps 744 mmHg 63%
    11:00 -2°C° 0 mm 5 mps 745 mmHg 60%
    12:00 -1°C° 0 mm 5 mps 745 mmHg 58%
    13:00 -1°C° 0 mm 5 mps 746 mmHg 56%
    14:00 -1°C° 0 mm 5 mps 746 mmHg 54%
    15:00 -1°C° 0.1 mm 5 mps 747 mmHg 55%
    16:00 -1°C° 0.1 mm 4 mps 747 mmHg 55%
    17:00 -1°C° 0.1 mm 4 mps 748 mmHg 56%
    18:00 -2°C° 0 mm 4 mps 748 mmHg 62%
    19:00 -2°C° 0 mm 3 mps 749 mmHg 67%
    20:00 -3°C° 0 mm 2 mps 750 mmHg 72%
    21:00 -3°C° 0 mm 2 mps 750 mmHg 75%
    22:00 -4°C° 0 mm 2 mps 751 mmHg 78%
    23:00 -4°C° 0 mm 2 mps 751 mmHg 81%

    28 March, Thursday

    Time Temperature Precipitation Wind Pressure Humidity
    00:00 -4°C° 0 mm 2 mps 751 mmHg 82%
    01:00 -5°C° 0 mm 2 mps 752 mmHg 83%
    02:00 -5°C° 0 mm 2 mps 752 mmHg 84%
    03:00 -3°C° 0 mm 1 mps 753 mmHg 83%
    04:00 -3°C° 0 mm 1 mps 753 mmHg 83%
    05:00 -3°C° 0 mm 1 mps 753 mmHg 82%
    06:00 -2°C° 0 mm 1 mps 754 mmHg 76%
    07:00 -1°C° 0 mm 1 mps 754 mmHg 71%
    08:00 -2°C° 0 mm 2 mps 755 mmHg 65%
    09:00 +1°C° 0 mm 2 mps 755 mmHg 58%
    10:00 +2°C° 0 mm 2 mps 755 mmHg 50%
    11:00 +2°C° 0 mm 3 mps 755 mmHg 43%
    12:00 +3°C° 0 mm 3 mps 754 mmHg 44%
    13:00 +3°C° 0 mm 3 mps 754 mmHg 45%
    14:00 +4°C° 0 mm 4 mps 754 mmHg 46%
    15:00 +4°C° 0 mm 3 mps 754 mmHg 53%
    16:00 +3°C° 0 mm 3 mps 753 mmHg 60%
    17:00 +4°C° 0 mm 2 mps 753 mmHg 67%
    18:00 +3°C° 0 mm 2 mps 753 mmHg 72%
    19:00 +2°C° 0 mm 2 mps 753 mmHg 77%
    20:00 +2°C° 0 mm 2 mps 753 mmHg 83%
    21:00 +1°C° 0 mm 2 mps 753 mmHg 86%
    22:00 0°C° 0 mm 3 mps 753 mmHg 89%
    23:00 -1°C° 0 mm 3 mps 753 mmHg 92%

    29 March, Friday

    Time Temperature Precipitation Wind Pressure Humidity
    00:00 -1°C° 0 mm 3 mps 752 mmHg 92%
    01:00 -1°C° 0 mm 3 mps 752 mmHg 93%
    02:00 -1°C° 0 mm 3 mps 752 mmHg 94%
    03:00 -1°C° 0 mm 3 mps 752 mmHg 93%
    04:00 0°C° 0 mm 3 mps 752 mmHg 92%
    05:00 0°C° 0 mm 3 mps 752 mmHg 91%
    06:00 0°C° 0 mm 4 mps 752 mmHg 87%
    07:00 0°C° 0 mm 4 mps 752 mmHg 83%
    08:00 +1°C° 0 mm 4 mps 752 mmHg 80%
    09:00 +4°C° 0 mm 4 mps 752 mmHg 75%
    10:00 +5°C° 0 mm 4 mps 752 mmHg 70%
    11:00 +7°C° 0 mm 4 mps 751 mmHg 65%
    12:00 +8°C° 0 mm 4 mps 751 mmHg 63%
    13:00 +10°C° 0 mm 4 mps 751 mmHg 62%
    14:00 +11°C° 0 mm 4 mps 751 mmHg 60%
    15:00 +10°C° 0 mm 4 mps 750 mmHg 63%
    16:00 +10°C° 0 mm 3 mps 750 mmHg 66%
    17:00 +9°C° 0 mm 3 mps 750 mmHg 69%
    18:00 +8°C° 0 mm 3 mps 750 mmHg 75%
    19:00 +5°C° 0 mm 3 mps 750 mmHg 81%
    20:00 +5°C° 0 mm 2 mps 750 mmHg 87%
    21:00 +5°C° 0 mm 2 mps 749 mmHg 88%
    22:00 +3°C° 0 mm 3 mps 749 mmHg 88%
    23:00 +3°C° 0 mm 3 mps 749 mmHg 89%
    Show more